BEIDOU-3 M21 (44793 NORAD) Tracking and Keplerian Element Data

This shows tracking and keplerian element data for the satellite.

Feedback or suggestion? Click here.




ElementValue
Catalog44793
NameBEIDOU-3 M21
Epoch Orbit111
Epoch Day22.4598449
Epoch Year2020
RAAN20.801
Inclination55.0202
Eccentricity0.0007219
Argument of Perigee332.1922
Mean Anonmoly201.83
Mean Motion1.86232563
Decay Rate-8.8E-07
L11 44793U 19078A 20022.45984490 -.00000088 00000-0 10000-3 0 9992
L22 44793 55.0202 20.8010 0007219 332.1922 201.8300 1.86232563 1118

Live tracking and technical data element details for BEIDOU-3 M21 (NORAD 44793). BEIDOU-3 M21 can be tracked NOW for your location showing map with azimuth and elevation plus other details from your city location.

Track the satellite on the map from your city or location and see movement details for azimuth, elevation, latitude, longitude, range, height, and movement on the map or in text.







IsCatalogInMostPopularTable: catalog: 44793, numindb: 9
Update: records affected: 1



GetName: 44793 BEIDOU-3 M21

Hit Count: updated at: Fri, 24 Jan 2020 15:17:58 GMT